Time,TemperatureF,DewpointF,PressureIn,WindDirection,WindDirectionDegrees,WindSpeedMPH,WindSpeedGustMPH,Humidity,HourlyPrecipIn,Conditions,Clouds,dailyrainin,SoftwareType,DateUTC
2013-03-11 00:00:00,57.8,45.3,29.99,North,0,0.0,0.0,63,0.00,,,0.00,WUHU216HW,2013-03-11 04:00:00,
2013-03-11 00:05:00,58.0,45.8,29.99,North,0,0.0,0.0,64,0.00,,,0.00,WUHU216HW,2013-03-11 04:05:00,
2013-03-11 00:10:00,58.0,45.8,29.99,North,0,0.0,0.0,64,0.00,,,0.00,WUHU216HW,2013-03-11 04:10:00,
2013-03-11 00:15:00,58.0,45.8,29.99,North,0,0.0,0.0,64,0.00,,,0.00,WUHU216HW,2013-03-11 04:15:00,
2013-03-11 00:20:00,58.0,46.3,29.98,North,0,0.0,0.0,65,0.00,,,0.00,WUHU216HW,2013-03-11 04:20:00,
2013-03-11 00:25:00,58.0,46.3,29.99,North,0,0.0,0.0,65,0.00,,,0.00,WUHU216HW,2013-03-11 04:25:00,
2013-03-11 00:30:00,57.6,45.9,29.99,North,0,0.0,0.0,65,0.00,,,0.00,WUHU216HW,2013-03-11 04:30:00,
2013-03-11 00:35:00,57.6,46.3,29.99,North,0,0.0,0.0,66,0.00,,,0.00,WUHU216HW,2013-03-11 04:35:00,
2013-03-11 00:40:00,57.4,46.1,29.99,North,0,0.0,0.0,66,0.00,,,0.00,WUHU216HW,2013-03-11 04:40:00,
2013-03-11 00:45:00,57.4,46.1,29.99,North,0,0.0,0.0,66,0.00,,,0.00,WUHU216HW,2013-03-11 04:45:00,
2013-03-11 00:50:00,57.4,46.1,29.99,North,0,0.0,0.0,66,0.00,,,0.00,WUHU216HW,2013-03-11 04:50:00,
2013-03-11 01:00:00,57.2,46.7,29.99,North,0,0.0,0.0,68,0.00,,,0.00,WUHU216HW,2013-03-11 05:00:00,
2013-03-11 01:05:00,57.2,46.4,29.98,North,0,0.0,0.0,67,0.00,,,0.00,WUHU216HW,2013-03-11 05:05:00,
2013-03-11 01:10:00,57.2,46.4,29.99,North,0,0.0,0.0,67,0.00,,,0.00,WUHU216HW,2013-03-11 05:10:00,
2013-03-11 01:15:00,57.1,47.0,29.99,North,0,0.0,0.0,69,0.00,,,0.00,WUHU216HW,2013-03-11 05:15:00,
2013-03-11 01:20:00,56.9,46.8,29.99,North,0,0.0,0.0,69,0.00,,,0.00,WUHU216HW,2013-03-11 05:20:00,
2013-03-11 01:25:00,56.9,47.2,29.99,North,0,0.0,0.0,70,0.00,,,0.00,WUHU216HW,2013-03-11 05:25:00,
2013-03-11 01:29:00,56.9,47.9,29.98,North,0,0.0,0.0,72,0.00,,,0.00,WUHU216HW,2013-03-11 05:29:00,
2013-03-11 01:35:00,56.9,47.9,29.98,North,0,0.0,0.0,72,0.00,,,0.00,WUHU216HW,2013-03-11 05:35:00,
2013-03-11 01:40:00,56.9,47.5,29.99,North,0,0.0,0.0,71,0.00,,,0.00,WUHU216HW,2013-03-11 05:40:00,
2013-03-11 01:45:00,56.9,48.2,29.98,North,0,0.0,0.0,73,0.00,,,0.00,WUHU216HW,2013-03-11 05:45:00,
2013-03-11 01:50:00,56.9,48.6,29.98,North,0,0.0,0.0,74,0.00,,,0.00,WUHU216HW,2013-03-11 05:50:00,
2013-03-11 01:55:00,56.9,48.6,29.97,North,0,0.0,0.0,74,0.00,,,0.00,WUHU216HW,2013-03-11 05:55:00,
2013-03-11 02:00:00,56.9,48.6,29.97,North,0,0.0,0.0,74,0.00,,,0.00,WUHU216HW,2013-03-11 06:00:00,
2013-03-11 02:05:00,56.9,49.0,29.97,North,0,0.0,0.0,75,0.00,,,0.00,WUHU216HW,2013-03-11 06:05:00,
2013-03-11 02:10:00,56.9,49.0,29.97,North,0,0.0,0.0,75,0.00,,,0.00,WUHU216HW,2013-03-11 06:10:00,
2013-03-11 02:15:00,56.7,48.8,29.97,North,0,0.0,0.0,75,0.00,,,0.00,WUHU216HW,2013-03-11 06:15:00,
2013-03-11 02:20:00,56.5,48.6,29.97,North,0,0.0,0.0,75,0.00,,,0.00,WUHU216HW,2013-03-11 06:20:00,
2013-03-11 02:25:00,56.5,49.0,29.97,North,0,0.0,0.0,76,0.00,,,0.00,WUHU216HW,2013-03-11 06:25:00,
2013-03-11 02:30:00,56.5,49.3,29.97,North,0,0.0,0.0,77,0.00,,,0.00,WUHU216HW,2013-03-11 06:30:00,
2013-03-11 02:35:00,56.3,49.1,29.97,North,0,0.0,0.0,77,0.00,,,0.00,WUHU216HW,2013-03-11 06:35:00,
2013-03-11 02:40:00,56.2,49.0,29.97,North,0,0.0,0.0,77,0.00,,,0.00,WUHU216HW,2013-03-11 06:40:00,
2013-03-11 02:45:00,56.2,49.3,29.97,North,0,0.0,0.0,78,0.00,,,0.00,WUHU216HW,2013-03-11 06:45:00,
2013-03-11 02:50:00,56.2,49.0,29.97,North,0,0.0,0.0,77,0.00,,,0.00,WUHU216HW,2013-03-11 06:50:00,
2013-03-11 02:55:00,56.2,49.3,29.97,North,0,0.0,0.0,78,0.00,,,0.00,WUHU216HW,2013-03-11 06:55:00,
2013-03-11 03:00:00,56.0,49.5,29.97,North,0,0.0,0.0,79,0.00,,,0.00,WUHU216HW,2013-03-11 07:00:00,
2013-03-11 03:05:00,56.0,49.5,29.97,North,0,0.0,0.0,79,0.00,,,0.00,WUHU216HW,2013-03-11 07:05:00,
2013-03-11 03:10:00,56.0,49.5,29.96,North,0,0.0,0.0,79,0.00,,,0.00,WUHU216HW,2013-03-11 07:10:00,
2013-03-11 03:15:00,55.8,48.6,29.96,North,0,0.0,0.0,77,0.00,,,0.00,WUHU216HW,2013-03-11 07:15:00,
2013-03-11 03:20:00,55.8,49.3,29.96,North,0,0.0,0.0,79,0.00,,,0.00,WUHU216HW,2013-03-11 07:20:00,
2013-03-11 03:25:00,55.8,49.7,29.95,North,0,0.0,0.0,80,0.00,,,0.00,WUHU216HW,2013-03-11 07:25:00,
2013-03-11 03:30:00,55.8,49.3,29.95,North,0,0.0,0.0,79,0.00,,,0.00,WUHU216HW,2013-03-11 07:30:00,
2013-03-11 03:35:00,55.8,49.3,29.94,North,0,0.0,0.0,79,0.00,,,0.00,WUHU216HW,2013-03-11 07:35:00,
2013-03-11 03:40:00,55.8,49.7,29.94,North,0,0.0,0.0,80,0.00,,,0.00,WUHU216HW,2013-03-11 07:40:00,
2013-03-11 03:45:00,55.6,49.5,29.94,North,0,0.0,0.0,80,0.00,,,0.00,WUHU216HW,2013-03-11 07:45:00,
2013-03-11 03:50:00,55.6,49.9,29.94,North,0,0.0,0.0,81,0.00,,,0.00,WUHU216HW,2013-03-11 07:50:00,
2013-03-11 03:55:00,55.6,49.9,29.94,North,0,0.0,0.0,81,0.00,,,0.00,WUHU216HW,2013-03-11 07:55:00,
2013-03-11 04:00:00,55.4,49.3,29.94,North,0,0.0,0.0,80,0.00,,,0.00,WUHU216HW,2013-03-11 08:00:00,
2013-03-11 04:05:00,55.4,49.7,29.94,North,0,0.0,0.0,81,0.00,,,0.00,WUHU216HW,2013-03-11 08:05:00,
2013-03-11 04:10:00,55.4,49.7,29.93,North,0,0.0,0.0,81,0.00,,,0.00,WUHU216HW,2013-03-11 08:10:00,
2013-03-11 04:15:00,55.4,49.7,29.93,North,0,0.0,0.0,81,0.00,,,0.00,WUHU216HW,2013-03-11 08:15:00,
2013-03-11 04:20:00,55.4,49.7,29.93,North,0,0.0,0.0,81,0.00,,,0.00,WUHU216HW,2013-03-11 08:20:00,
2013-03-11 04:25:00,55.4,49.7,29.93,North,0,0.0,0.0,81,0.00,,,0.00,WUHU216HW,2013-03-11 08:25:00,
2013-03-11 04:30:00,55.4,49.7,29.93,North,0,0.0,0.0,81,0.00,,,0.00,WUHU216HW,2013-03-11 08:30:00,
2013-03-11 04:35:00,55.4,49.7,29.92,North,0,0.0,0.0,81,0.00,,,0.00,WUHU216HW,2013-03-11 08:35:00,
2013-03-11 04:40:00,55.4,50.0,29.92,North,0,0.0,0.0,82,0.00,,,0.00,WUHU216HW,2013-03-11 08:40:00,
2013-03-11 04:45:00,55.3,49.5,29.92,North,0,0.0,0.0,81,0.00,,,0.00,WUHU216HW,2013-03-11 08:45:00,
2013-03-11 04:50:00,55.4,50.0,29.92,North,0,0.0,0.0,82,0.00,,,0.00,WUHU216HW,2013-03-11 08:50:00,
2013-03-11 04:55:00,55.4,50.0,29.92,North,0,0.0,0.0,82,0.00,,,0.00,WUHU216HW,2013-03-11 08:55:00,
2013-03-11 05:00:00,55.6,49.9,29.92,North,0,0.0,0.0,81,0.00,,,0.00,WUHU216HW,2013-03-11 09:00:00,
2013-03-11 05:05:00,55.4,49.7,29.92,North,0,0.0,0.0,81,0.00,,,0.00,WUHU216HW,2013-03-11 09:05:00,
2013-03-11 05:10:00,55.6,49.9,29.92,North,0,0.0,0.0,81,0.00,,,0.00,WUHU216HW,2013-03-11 09:10:00,
2013-03-11 05:15:00,55.4,50.0,29.93,North,0,0.0,0.0,82,0.00,,,0.00,WUHU216HW,2013-03-11 09:15:00,
2013-03-11 05:20:00,55.6,50.1,29.93,North,0,0.0,0.0,82,0.00,,,0.00,WUHU216HW,2013-03-11 09:20:00,
2013-03-11 05:25:00,55.6,50.1,29.93,North,0,0.0,0.0,82,0.00,,,0.00,WUHU216HW,2013-03-11 09:25:00,
2013-03-11 05:30:00,55.6,50.1,29.92,North,0,0.0,0.0,82,0.00,,,0.00,WUHU216HW,2013-03-11 09:30:00,
2013-03-11 05:35:00,55.6,50.1,29.93,North,0,0.0,0.0,82,0.00,,,0.00,WUHU216HW,2013-03-11 09:35:00,
2013-03-11 05:40:00,55.6,49.9,29.93,North,0,0.0,0.0,81,0.00,,,0.00,WUHU216HW,2013-03-11 09:40:00,
2013-03-11 05:45:00,55.6,49.9,29.93,North,0,0.0,0.0,81,0.00,,,0.00,WUHU216HW,2013-03-11 09:45:00,
2013-03-11 05:50:00,55.6,50.1,29.94,North,0,0.0,0.0,82,0.00,,,0.00,WUHU216HW,2013-03-11 09:50:00,
2013-03-11 05:55:00,55.6,50.1,29.94,North,0,0.0,0.0,82,0.00,,,0.00,WUHU216HW,2013-03-11 09:55:00,
2013-03-11 06:00:00,55.6,50.1,29.94,North,0,0.0,0.0,82,0.00,,,0.00,WUHU216HW,2013-03-11 10:00:00,
2013-03-11 06:05:00,55.6,50.1,29.94,North,0,0.0,0.0,82,0.00,,,0.00,WUHU216HW,2013-03-11 10:05:00,
2013-03-11 06:10:00,55.6,49.9,29.94,North,0,0.0,0.0,81,0.00,,,0.00,WUHU216HW,2013-03-11 10:10:00,
2013-03-11 06:15:00,55.6,50.1,29.94,North,0,0.0,0.0,82,0.00,,,0.00,WUHU216HW,2013-03-11 10:15:00,
2013-03-11 06:20:00,55.6,50.1,29.94,North,0,0.0,0.0,82,0.00,,,0.00,WUHU216HW,2013-03-11 10:20:00,
2013-03-11 06:25:00,55.4,50.0,29.94,North,0,0.0,0.0,82,0.00,,,0.00,WUHU216HW,2013-03-11 10:25:00,
2013-03-11 06:30:00,55.4,50.0,29.93,North,0,0.0,0.0,82,0.00,,,0.00,WUHU216HW,2013-03-11 10:30:00,
2013-03-11 06:35:00,55.3,49.8,29.94,North,0,0.0,0.0,82,0.00,,,0.00,WUHU216HW,2013-03-11 10:35:00,
2013-03-11 06:40:00,55.3,49.8,29.94,North,0,0.0,0.0,82,0.00,,,0.00,WUHU216HW,2013-03-11 10:40:00,
2013-03-11 06:45:00,55.3,49.8,29.94,North,0,0.0,0.0,82,0.00,,,0.00,WUHU216HW,2013-03-11 10:45:00,
2013-03-11 06:50:00,55.3,49.8,29.94,North,0,0.0,0.0,82,0.00,,,0.00,WUHU216HW,2013-03-11 10:50:00,
2013-03-11 06:55:00,55.3,49.8,29.94,North,0,0.0,0.0,82,0.00,,,0.00,WUHU216HW,2013-03-11 10:55:00,
2013-03-11 07:00:00,55.3,49.8,29.94,North,0,0.0,0.0,82,0.00,,,0.00,WUHU216HW,2013-03-11 11:00:00,
2013-03-11 07:05:00,55.3,49.8,29.94,North,0,0.0,0.0,82,0.00,,,0.00,WUHU216HW,2013-03-11 11:05:00,
2013-03-11 07:10:00,55.1,49.7,29.94,North,0,0.0,0.0,82,0.00,,,0.00,WUHU216HW,2013-03-11 11:10:00,
2013-03-11 07:15:00,55.1,49.7,29.94,North,0,0.0,0.0,82,0.00,,,0.00,WUHU216HW,2013-03-11 11:15:00,
2013-03-11 07:20:00,55.1,50.0,29.93,North,0,0.0,0.0,83,0.00,,,0.00,WUHU216HW,2013-03-11 11:20:00,
2013-03-11 07:25:00,55.1,49.7,29.93,North,0,0.0,0.0,82,0.00,,,0.00,WUHU216HW,2013-03-11 11:25:00,
2013-03-11 07:30:00,55.1,49.7,29.93,North,0,0.0,0.0,82,0.00,,,0.00,WUHU216HW,2013-03-11 11:30:00,
2013-03-11 07:35:00,55.1,50.0,29.93,North,0,0.0,0.0,83,0.00,,,0.00,WUHU216HW,2013-03-11 11:35:00,
2013-03-11 07:40:00,55.1,50.0,29.93,North,0,0.0,0.0,83,0.00,,,0.00,WUHU216HW,2013-03-11 11:40:00,
2013-03-11 07:45:00,55.1,50.0,29.93,North,0,0.0,0.0,83,0.00,,,0.00,WUHU216HW,2013-03-11 11:45:00,
2013-03-11 07:50:00,55.1,50.0,29.93,North,0,0.0,0.0,83,0.00,,,0.00,WUHU216HW,2013-03-11 11:50:00,
2013-03-11 07:55:00,55.3,50.1,29.93,North,0,0.0,0.0,83,0.00,,,0.00,WUHU216HW,2013-03-11 11:55:00,
2013-03-11 08:00:00,55.1,50.0,29.92,North,0,0.0,0.0,83,0.00,,,0.00,WUHU216HW,2013-03-11 12:00:00,
2013-03-11 08:05:00,55.1,50.0,29.92,North,0,0.0,0.0,83,0.00,,,0.00,WUHU216HW,2013-03-11 12:05:00,
2013-03-11 08:10:00,55.1,50.0,29.92,North,0,0.0,0.0,83,0.00,,,0.00,WUHU216HW,2013-03-11 12:10:00,
2013-03-11 08:15:00,55.1,50.0,29.92,North,0,0.0,0.0,83,0.00,,,0.00,WUHU216HW,2013-03-11 12:15:00,
2013-03-11 08:20:00,55.1,50.0,29.91,North,0,0.0,0.0,83,0.00,,,0.00,WUHU216HW,2013-03-11 12:20:00,
2013-03-11 08:25:00,55.1,50.3,29.92,North,0,0.0,0.0,84,0.00,,,0.00,WUHU216HW,2013-03-11 12:25:00,
2013-03-11 08:30:00,55.1,50.3,29.92,North,0,0.0,0.0,84,0.00,,,0.00,WUHU216HW,2013-03-11 12:30:00,
2013-03-11 08:35:00,55.1,50.3,29.91,North,0,0.0,0.0,84,0.00,,,0.00,WUHU216HW,2013-03-11 12:35:00,
2013-03-11 08:40:00,55.1,50.3,29.91,North,0,0.0,0.0,84,0.00,,,0.00,WUHU216HW,2013-03-11 12:40:00,
2013-03-11 08:45:00,55.1,50.3,29.92,North,0,0.0,0.0,84,0.00,,,0.00,WUHU216HW,2013-03-11 12:45:00,
2013-03-11 08:50:00,55.1,50.3,29.91,North,0,0.0,0.0,84,0.00,,,0.00,WUHU216HW,2013-03-11 12:50:00,
2013-03-11 08:55:00,55.1,50.3,29.91,North,0,0.0,0.0,84,0.00,,,0.00,WUHU216HW,2013-03-11 12:55:00,
2013-03-11 09:00:00,55.3,50.5,29.91,North,0,0.0,0.0,84,0.00,,,0.00,WUHU216HW,2013-03-11 13:00:00,
2013-03-11 09:05:00,55.3,50.5,29.91,North,0,0.0,0.0,84,0.00,,,0.00,WUHU216HW,2013-03-11 13:05:00,
2013-03-11 09:10:00,55.4,50.6,29.91,North,0,0.0,0.0,84,0.00,,,0.00,WUHU216HW,2013-03-11 13:10:00,
2013-03-11 09:15:00,55.4,50.3,29.91,North,0,0.0,0.0,83,0.00,,,0.00,WUHU216HW,2013-03-11 13:15:00,
2013-03-11 09:20:00,55.6,50.5,29.91,North,0,0.0,0.0,83,0.00,,,0.00,WUHU216HW,2013-03-11 13:20:00,
2013-03-11 09:25:00,55.6,50.5,29.91,North,0,0.0,0.0,83,0.00,,,0.00,WUHU216HW,2013-03-11 13:25:00,
2013-03-11 09:30:00,55.8,50.3,29.91,North,0,0.0,0.0,82,0.00,,,0.00,WUHU216HW,2013-03-11 13:30:00,
2013-03-11 09:35:00,55.8,50.3,29.91,North,0,0.0,0.0,82,0.00,,,0.00,WUHU216HW,2013-03-11 13:35:00,
2013-03-11 09:40:00,56.0,50.5,29.91,North,0,0.0,0.0,82,0.00,,,0.00,WUHU216HW,2013-03-11 13:40:00,
2013-03-11 09:45:00,56.0,50.5,29.91,North,0,0.0,0.0,82,0.00,,,0.00,WUHU216HW,2013-03-11 13:45:00,
2013-03-11 09:55:00,56.3,50.9,29.91,North,0,0.0,0.0,82,0.00,,,0.00,WUHU216HW,2013-03-11 13:55:00,
2013-03-11 10:00:00,56.5,51.0,29.91,North,0,0.0,0.0,82,0.00,,,0.00,WUHU216HW,2013-03-11 14:00:00,
2013-03-11 10:05:00,56.7,51.2,29.90,North,0,0.0,0.0,82,0.00,,,0.00,WUHU216HW,2013-03-11 14:05:00,
2013-03-11 10:10:00,56.9,51.4,29.89,North,0,0.0,0.0,82,0.00,,,0.00,WUHU216HW,2013-03-11 14:10:00,
2013-03-11 10:15:00,56.9,51.4,29.89,North,0,0.0,0.0,82,0.00,,,0.00,WUHU216HW,2013-03-11 14:15:00,
2013-03-11 10:20:00,57.1,51.6,29.89,North,0,0.0,0.0,82,0.00,,,0.00,WUHU216HW,2013-03-11 14:20:00,
2013-03-11 10:25:00,56.9,51.4,29.90,North,0,0.0,0.0,82,0.00,,,0.00,WUHU216HW,2013-03-11 14:25:00,
2013-03-11 10:30:00,57.2,51.5,29.89,North,0,0.0,0.0,81,0.00,,,0.00,WUHU216HW,2013-03-11 14:30:00,
2013-03-11 10:35:00,57.2,51.5,29.89,North,0,0.0,0.0,81,0.00,,,0.00,WUHU216HW,2013-03-11 14:35:00,
2013-03-11 10:40:00,57.2,51.8,29.88,North,0,0.0,0.0,82,0.00,,,0.00,WUHU216HW,2013-03-11 14:40:00,
2013-03-11 10:45:00,57.2,51.5,29.88,North,0,0.0,0.0,81,0.00,,,0.00,WUHU216HW,2013-03-11 14:45:00,
2013-03-11 10:50:00,57.2,51.5,29.88,North,0,0.0,0.0,81,0.00,,,0.00,WUHU216HW,2013-03-11 14:50:00,
2013-03-11 11:06:00,57.6,51.9,29.87,North,0,0.0,0.0,81,0.00,,,0.00,WUHU216HW,2013-03-11 15:06:00,
2013-03-11 11:11:00,57.8,51.7,29.87,North,0,0.0,0.0,80,0.00,,,0.00,WUHU216HW,2013-03-11 15:11:00,
2013-03-11 11:16:00,58.0,51.8,29.87,North,0,0.0,0.0,80,0.00,,,0.00,WUHU216HW,2013-03-11 15:16:00,
2013-03-11 11:22:00,58.1,52.0,29.88,North,0,0.0,0.0,80,0.00,,,0.00,WUHU216HW,2013-03-11 15:22:00,
2013-03-11 11:27:00,58.5,52.0,29.88,North,0,0.0,0.0,79,0.00,,,0.00,WUHU216HW,2013-03-11 15:27:00,
2013-03-11 11:32:00,58.5,52.0,29.88,North,0,0.0,0.0,79,0.00,,,0.00,WUHU216HW,2013-03-11 15:32:00,
2013-03-11 11:37:00,58.7,52.2,29.88,North,0,0.0,0.0,79,0.00,,,0.00,WUHU216HW,2013-03-11 15:37:00,
2013-03-11 11:42:00,58.9,52.0,29.87,North,0,0.0,0.0,78,0.00,,,0.00,WUHU216HW,2013-03-11 15:42:00,
2013-03-11 11:47:00,59.0,52.2,29.86,North,0,0.0,0.0,78,0.00,,,0.00,WUHU216HW,2013-03-11 15:47:00,
2013-03-11 11:52:00,59.0,51.8,29.86,North,0,0.0,0.0,77,0.00,,,0.00,WUHU216HW,2013-03-11 15:52:00,
2013-03-11 11:57:00,59.2,52.0,29.87,North,0,0.0,0.0,77,0.00,,,0.00,WUHU216HW,2013-03-11 15:57:00,
2013-03-11 12:02:00,59.2,52.0,29.87,North,0,0.0,0.0,77,0.00,,,0.00,WUHU216HW,2013-03-11 16:02:00,
2013-03-11 12:07:00,59.4,51.8,29.87,North,0,0.0,0.0,76,0.00,,,0.00,WUHU216HW,2013-03-11 16:07:00,
2013-03-11 12:12:00,59.8,52.2,29.85,North,0,0.0,0.0,76,0.00,,,0.00,WUHU216HW,2013-03-11 16:12:00,
2013-03-11 12:17:00,59.9,52.4,29.85,North,0,0.0,0.0,76,0.00,,,0.00,WUHU216HW,2013-03-11 16:17:00,
2013-03-11 12:22:00,60.3,52.0,29.85,North,0,0.0,0.0,74,0.00,,,0.00,WUHU216HW,2013-03-11 16:22:00,
2013-03-11 12:27:00,60.3,52.0,29.84,North,0,0.0,0.0,74,0.00,,,0.00,WUHU216HW,2013-03-11 16:27:00,
2013-03-11 12:31:00,60.3,52.0,29.83,North,0,0.0,0.0,74,0.00,,,0.00,WUHU216HW,2013-03-11 16:31:00,
2013-03-11 12:32:00,60.3,52.0,29.83,North,0,0.0,0.0,74,0.00,,,0.00,WUHU216HW,2013-03-11 16:32:00,
2013-03-11 12:37:00,60.3,52.0,29.83,North,0,0.0,0.0,74,0.00,,,0.00,WUHU216HW,2013-03-11 16:37:00,
2013-03-11 13:00:00,61.9,52.1,29.82,North,0,0.0,0.0,70,0.00,,,0.00,WUHU216HW,2013-03-11 17:00:00,
2013-03-11 13:05:00,61.9,52.1,29.82,North,0,0.0,0.0,70,0.00,,,0.00,WUHU216HW,2013-03-11 17:05:00,
2013-03-11 15:00:00,61.9,53.6,29.75,North,0,0.0,0.0,74,0.00,,,0.00,WUHU216HW,2013-03-11 19:00:00,
2013-03-11 15:05:00,61.9,53.9,29.74,North,0,0.0,0.0,75,0.00,,,0.00,WUHU216HW,2013-03-11 19:05:00,
2013-03-11 15:10:00,61.7,53.4,29.74,North,0,0.0,0.0,74,0.00,,,0.00,WUHU216HW,2013-03-11 19:10:00,
2013-03-11 15:15:00,61.9,53.6,29.73,North,0,0.0,0.0,74,0.00,,,0.00,WUHU216HW,2013-03-11 19:15:00,
2013-03-11 15:20:00,61.9,53.2,29.75,North,0,0.0,0.0,73,0.00,,,0.00,WUHU216HW,2013-03-11 19:20:00,
2013-03-11 15:25:00,61.9,53.2,29.75,North,0,0.0,0.0,73,0.00,,,0.00,WUHU216HW,2013-03-11 19:25:00,
2013-03-11 15:30:00,61.9,53.2,29.75,North,0,0.0,0.0,73,0.00,,,0.00,WUHU216HW,2013-03-11 19:30:00,
2013-03-11 15:35:00,61.9,53.2,29.75,North,0,0.0,0.0,73,0.00,,,0.00,WUHU216HW,2013-03-11 19:35:00,
2013-03-11 15:40:00,61.9,53.2,29.74,North,0,0.0,0.0,73,0.00,,,0.00,WUHU216HW,2013-03-11 19:40:00,
2013-03-11 15:45:00,61.9,53.9,29.74,North,0,0.0,0.0,75,0.00,,,0.00,WUHU216HW,2013-03-11 19:45:00,
2013-03-11 15:50:00,61.2,54.4,29.75,North,0,0.0,0.0,78,0.01,,,0.00,WUHU216HW,2013-03-11 19:50:00,
2013-03-11 15:55:00,60.7,54.5,29.75,North,0,0.0,0.0,80,0.05,,,0.04,WUHU216HW,2013-03-11 19:55:00,
2013-03-11 16:00:00,60.7,54.5,29.75,North,0,0.0,0.0,80,0.05,,,0.04,WUHU216HW,2013-03-11 20:00:00,
2013-03-11 16:24:00,58.3,54.8,29.76,North,0,0.0,0.0,88,0.18,,,0.05,WUHU216HW,2013-03-11 20:24:00,
2013-03-11 16:29:00,58.1,54.3,29.76,North,0,0.0,0.0,87,0.21,,,0.20,WUHU216HW,2013-03-11 20:29:00,
2013-03-11 16:34:00,58.0,54.1,29.76,North,0,0.0,0.0,87,0.24,,,0.24,WUHU216HW,2013-03-11 20:34:00,
2013-03-11 16:39:00,58.0,54.1,29.77,North,0,0.0,0.0,87,0.31,,,0.30,WUHU216HW,2013-03-11 20:39:00,
2013-03-11 16:44:00,57.2,53.4,29.77,North,0,0.0,0.0,87,0.35,,,0.34,WUHU216HW,2013-03-11 20:44:00,
2013-03-11 16:49:00,56.7,52.8,29.76,North,0,0.0,0.0,87,0.35,,,0.37,WUHU216HW,2013-03-11 20:49:00,
2013-03-11 16:54:00,56.2,52.3,29.76,North,0,0.0,0.0,87,0.35,,,0.39,WUHU216HW,2013-03-11 20:54:00,
2013-03-11 16:59:00,55.8,51.9,29.77,North,0,0.0,0.0,87,0.37,,,0.42,WUHU216HW,2013-03-11 20:59:00,
2013-03-11 17:04:00,55.3,51.8,29.77,North,0,0.0,0.0,88,0.37,,,0.46,WUHU216HW,2013-03-11 21:04:00,
2013-03-11 17:09:00,55.1,51.6,29.77,North,0,0.0,0.0,88,0.37,,,0.47,WUHU216HW,2013-03-11 21:09:00,
2013-03-11 17:14:00,55.1,51.6,29.76,North,0,0.0,0.0,88,0.37,,,0.50,WUHU216HW,2013-03-11 21:14:00,
2013-03-11 17:19:00,55.1,51.6,29.76,North,0,0.0,0.0,88,0.37,,,0.52,WUHU216HW,2013-03-11 21:19:00,
2013-03-11 17:24:00,55.1,51.6,29.76,North,0,0.0,0.0,88,0.35,,,0.54,WUHU216HW,2013-03-11 21:24:00,
2013-03-11 17:29:00,55.1,51.6,29.76,North,0,0.0,0.0,88,0.37,,,0.56,WUHU216HW,2013-03-11 21:29:00,
2013-03-11 17:34:00,55.1,51.6,29.76,North,0,0.0,0.0,88,0.37,,,0.56,WUHU216HW,2013-03-11 21:34:00,
2013-03-11 17:57:00,55.1,51.8,29.77,North,0,0.0,0.0,89,0.23,,,0.56,WUHU216HW,2013-03-11 21:57:00,
2013-03-11 18:02:00,54.9,51.7,29.78,North,0,0.0,0.0,89,0.23,,,0.70,WUHU216HW,2013-03-11 22:02:00,
2013-03-11 18:07:00,55.1,51.8,29.77,North,0,0.0,0.0,89,0.24,,,0.72,WUHU216HW,2013-03-11 22:07:00,
2013-03-11 18:12:00,54.9,51.7,29.76,North,0,0.0,0.0,89,0.22,,,0.75,WUHU216HW,2013-03-11 22:12:00,
2013-03-11 18:17:00,54.9,52.3,29.76,North,0,0.0,0.0,91,0.23,,,0.76,WUHU216HW,2013-03-11 22:17:00,
2013-03-11 18:22:00,54.9,52.0,29.77,North,0,0.0,0.0,90,0.24,,,0.78,WUHU216HW,2013-03-11 22:22:00,
2013-03-11 18:27:00,54.7,51.8,29.76,North,0,0.0,0.0,90,0.24,,,0.80,WUHU216HW,2013-03-11 22:27:00,
2013-03-11 18:32:00,54.7,51.5,29.76,North,0,0.0,0.0,89,0.24,,,0.83,WUHU216HW,2013-03-11 22:32:00,
2013-03-11 18:37:00,54.7,51.8,29.76,North,0,0.0,0.0,90,0.25,,,0.86,WUHU216HW,2013-03-11 22:37:00,
2013-03-11 18:42:00,54.7,51.5,29.75,North,0,0.0,0.0,89,0.24,,,0.87,WUHU216HW,2013-03-11 22:42:00,
2013-03-11 18:47:00,54.7,51.5,29.76,North,0,0.0,0.0,89,0.25,,,0.89,WUHU216HW,2013-03-11 22:47:00,
2013-03-11 18:52:00,54.7,52.1,29.77,North,0,0.0,0.0,91,0.24,,,0.91,WUHU216HW,2013-03-11 22:52:00,
2013-03-11 18:57:00,54.5,51.3,29.76,North,0,0.0,0.0,89,0.24,,,0.92,WUHU216HW,2013-03-11 22:57:00,
2013-03-11 19:03:00,54.4,51.8,29.75,North,0,0.0,0.0,91,0.24,,,0.94,WUHU216HW,2013-03-11 23:03:00,
2013-03-11 19:08:00,54.4,51.8,29.75,North,0,0.0,0.0,91,0.23,,,0.97,WUHU216HW,2013-03-11 23:08:00,
2013-03-11 19:13:00,54.2,51.8,29.75,North,0,0.0,0.0,92,0.23,,,0.99,WUHU216HW,2013-03-11 23:13:00,
2013-03-11 19:18:00,54.2,51.8,29.74,North,0,0.0,0.0,92,0.24,,,1.01,WUHU216HW,2013-03-11 23:18:00,
2013-03-11 19:23:00,54.0,51.4,29.73,North,0,0.0,0.0,91,0.24,,,1.03,WUHU216HW,2013-03-11 23:23:00,
2013-03-11 19:28:00,54.0,51.1,29.74,North,0,0.0,0.0,90,0.20,,,1.04,WUHU216HW,2013-03-11 23:28:00,
2013-03-11 19:33:00,53.8,50.9,29.74,North,0,0.0,0.0,90,0.20,,,1.05,WUHU216HW,2013-03-11 23:33:00,
2013-03-11 19:38:00,54.0,51.4,29.74,North,0,0.0,0.0,91,0.19,,,1.06,WUHU216HW,2013-03-11 23:38:00,
2013-03-11 19:43:00,54.0,51.7,29.73,North,0,0.0,0.0,92,0.19,,,1.07,WUHU216HW,2013-03-11 23:43:00,
2013-03-11 19:48:00,54.0,51.4,29.73,North,0,0.0,0.0,91,0.20,,,1.08,WUHU216HW,2013-03-11 23:48:00,
2013-03-11 19:53:00,54.0,51.4,29.73,North,0,0.0,0.0,91,0.18,,,1.10,WUHU216HW,2013-03-11 23:53:00,
2013-03-11 19:58:00,54.0,51.4,29.73,North,0,0.0,0.0,91,0.17,,,1.11,WUHU216HW,2013-03-11 23:58:00,
2013-03-11 20:03:00,54.0,51.4,29.73,North,0,0.0,0.0,91,0.16,,,1.12,WUHU216HW,2013-03-12 00:03:00,
2013-03-11 20:08:00,54.0,51.4,29.73,North,0,0.0,0.0,91,0.15,,,1.14,WUHU216HW,2013-03-12 00:08:00,
2013-03-11 20:13:00,54.0,51.7,29.73,North,0,0.0,0.0,92,0.16,,,1.15,WUHU216HW,2013-03-12 00:13:00,
2013-03-11 20:18:00,54.0,51.7,29.73,North,0,0.0,0.0,92,0.16,,,1.15,WUHU216HW,2013-03-12 00:18:00,
2013-03-11 20:24:00,53.8,51.5,29.73,North,0,0.0,0.0,92,0.15,,,1.15,WUHU216HW,2013-03-12 00:24:00,
2013-03-11 20:29:00,53.8,51.5,29.74,North,0,0.0,0.0,92,0.16,,,1.19,WUHU216HW,2013-03-12 00:29:00,
2013-03-11 20:34:00,54.0,51.4,29.74,North,0,0.0,0.0,91,0.17,,,1.23,WUHU216HW,2013-03-12 00:34:00,
2013-03-11 20:39:00,53.8,51.2,29.74,North,0,0.0,0.0,91,0.19,,,1.26,WUHU216HW,2013-03-12 00:39:00,
2013-03-11 20:44:00,53.6,51.3,29.75,North,0,0.0,0.0,92,0.20,,,1.26,WUHU216HW,2013-03-12 00:44:00,
2013-03-11 20:49:00,53.6,51.3,29.75,North,0,0.0,0.0,92,0.19,,,1.28,WUHU216HW,2013-03-12 00:49:00,
2013-03-11 20:54:00,53.6,51.7,29.73,North,0,0.0,0.0,93,0.20,,,1.30,WUHU216HW,2013-03-12 00:54:00,
2013-03-11 20:59:00,53.6,51.7,29.73,North,0,0.0,0.0,93,0.20,,,1.33,WUHU216HW,2013-03-12 00:59:00,
2013-03-11 21:04:00,53.6,51.7,29.74,North,0,0.0,0.0,93,0.20,,,1.33,WUHU216HW,2013-03-12 01:04:00,
2013-03-11 21:09:00,53.6,51.7,29.74,North,0,0.0,0.0,93,0.20,,,1.33,WUHU216HW,2013-03-12 01:09:00,
2013-03-11 21:17:00,53.6,51.7,29.75,North,0,0.0,0.0,93,0.16,,,1.33,WUHU216HW,2013-03-12 01:17:00,
2013-03-11 21:22:00,53.6,51.7,29.75,North,0,0.0,0.0,93,0.16,,,1.33,WUHU216HW,2013-03-12 01:22:00,
2013-03-11 21:27:00,53.6,51.7,29.74,North,0,0.0,0.0,93,0.14,,,1.35,WUHU216HW,2013-03-12 01:27:00,
2013-03-11 21:32:00,53.6,51.7,29.74,North,0,0.0,0.0,93,0.14,,,1.35,WUHU216HW,2013-03-12 01:32:00,
2013-03-11 21:37:00,53.6,51.7,29.74,North,0,0.0,0.0,93,0.11,,,1.35,WUHU216HW,2013-03-12 01:37:00,
2013-03-11 21:42:00,53.6,51.7,29.74,North,0,0.0,0.0,93,0.08,,,1.35,WUHU216HW,2013-03-12 01:42:00,
2013-03-11 21:47:00,53.6,51.7,29.75,North,0,0.0,0.0,93,0.08,,,1.37,WUHU216HW,2013-03-12 01:47:00,
2013-03-11 21:52:00,53.6,51.7,29.75,North,0,0.0,0.0,93,0.06,,,1.37,WUHU216HW,2013-03-12 01:52:00,
2013-03-11 21:57:00,53.6,51.9,29.75,North,0,0.0,0.0,94,0.05,,,1.37,WUHU216HW,2013-03-12 01:57:00,
2013-03-11 22:02:00,53.6,51.9,29.75,North,0,0.0,0.0,94,0.05,,,1.37,WUHU216HW,2013-03-12 02:02:00,
2013-03-11 22:07:00,53.6,51.7,29.75,North,0,0.0,0.0,93,0.04,,,1.37,WUHU216HW,2013-03-12 02:07:00,
2013-03-11 22:12:00,53.6,51.7,29.75,North,0,0.0,0.0,93,0.04,,,1.37,WUHU216HW,2013-03-12 02:12:00,
2013-03-11 22:17:00,53.5,51.5,29.75,North,0,0.0,0.0,93,0.04,,,1.39,WUHU216HW,2013-03-12 02:17:00,
2013-03-11 22:22:00,53.5,51.5,29.75,North,0,0.0,0.0,93,0.04,,,1.39,WUHU216HW,2013-03-12 02:22:00,
2013-03-11 22:27:00,53.5,51.5,29.75,North,0,0.0,0.0,93,0.04,,,1.39,WUHU216HW,2013-03-12 02:27:00,